QPF
0.00 0.00 0.01 0.04 0.02 0.01 0.01 0.00 0.00 0.00 0.00 0.00 0.00 0.00 0.00 0.01 0.03 0.03 0.03 0.01 0.00 0.00 0.00 0.00 0.02 0.02 0.03 0.04 0.05 0.05 0.05 0.04 0.05 0.04 0.05 0.06 0.06 0.06 0.05 0.04 0.06 0.05 0.05 0.05 0.05 0.06 0.05 0.04 0.04
0.00 0.00 0.01 0.01 0.01 0.02 0.02 0.00 0.00 0.00 0.00 0.00 0.00 0.00 0.00 0.00 0.00 0.01 0.02 0.00 0.00 0.00 0.00 0.00 0.01 0.02 0.02 0.03 0.04 0.04 0.04 0.03 0.04 0.04 0.03 0.04 0.05 0.05 0.07 0.07 0.05 0.06 0.05 0.04 0.05 0.05 0.04 0.04 0.03
0.00 0.00 0.00 0.01 0.01 0.01 0.00 0.00 0.00 0.00 0.00 0.00 0.00 0.00 0.00 0.01 0.01 0.01 0.01 0.00 0.00 0.00 0.00 0.00 0.01 0.01 0.02 0.03 0.04 0.04 0.03 0.03 0.03 0.03 0.03 0.05 0.06 0.06 0.07 0.06 0.06 0.07 0.06 0.05 0.04 0.04 0.03 0.03 0.03
0.00 0.00 0.00 0.01 0.01 0.00 0.00 0.00 0.00 0.00 0.00 0.00 0.00 0.01 0.00 0.01 0.00 0.00 0.00 0.00 0.00 0.00 0.00 0.00 0.00 0.01 0.02 0.03 0.04 0.03 0.03 0.03 0.03 0.03 0.05 0.07 0.06 0.06 0.05 0.05 0.06 0.04 0.04 0.03 0.03 0.02 0.01 0.02 0.03
0.00 0.00 0.00 0.00 0.00 0.00 0.00 0.00 0.00 0.00 0.00 0.00 0.00 0.00 0.01 0.01 0.00 0.00 0.00 0.00 0.00 0.00 0.00 0.00 0.00 0.01 0.02 0.03 0.03 0.03 0.03 0.04 0.04 0.04 0.05 0.05 0.05 0.04 0.04 0.04 0.04 0.03 0.03 0.02 0.02 0.02 0.02 0.02 0.02
0.00 0.00 0.00 0.00 0.00 0.00 0.00 0.00 0.00 0.00 0.00 0.00 0.00 0.00 0.01 0.00 0.00 0.00 0.00 0.00 0.00 0.00 0.00 0.00 0.00 0.01 0.01 0.02 0.02 0.03 0.04 0.04 0.04 0.04 0.04 0.03 0.02 0.02 0.03 0.04 0.03 0.03 0.02 0.02 0.02 0.02 0.02 0.02 0.02
0.00 0.00 0.00 0.00 0.00 0.00 0.00 0.00 0.00 0.00 0.00 0.00 0.00 0.00 0.00 0.00 0.00 0.00 0.00 0.00 0.00 0.00 0.01 0.01 0.01 0.00 0.01 0.01 0.01 0.02 0.02 0.02 0.02 0.04 0.04 0.03 0.02 0.02 0.02 0.03 0.04 0.05 0.04 0.02 0.02 0.02 0.02 0.02 0.02
0.00 0.00 0.00 0.00 0.00 0.00 0.00 0.00 0.00 0.00 0.00 0.00 0.00 0.00 0.00 0.00 0.00 0.00 0.00 0.00 0.00 0.00 0.02 0.02 0.02 0.02 0.02 0.01 0.01 0.01 0.01 0.01 0.01 0.02 0.02 0.04 0.04 0.02 0.02 0.02 0.02 0.03 0.03 0.02 0.02 0.02 0.02 0.03 0.03
0.00 0.00 0.00 0.00 0.00 0.00 0.00 0.00 0.00 0.00 0.00 0.00 0.00 0.00 0.00 0.00 0.00 0.00 0.00 0.00 0.00 0.00 0.01 0.03 0.04 0.02 0.02 0.02 0.01 0.02 0.02 0.02 0.04 0.03 0.03 0.09 0.14 0.10 0.06 0.02 0.01 0.02 0.02 0.01 0.01 0.02 0.03 0.03 0.04
0.00 0.00 0.00 0.00 0.00 0.00 0.00 0.00 0.00 0.00 0.00 0.00 0.00 0.00 0.00 0.00 0.00 0.00 0.00 0.01 0.02 0.00 0.00 0.01 0.02 0.02 0.03 0.03 0.04 0.09 0.07 0.07 0.09 0.08 0.09 0.10 0.10 0.10 0.05 0.03 0.02 0.02 0.02 0.02 0.03 0.04 0.04 0.04 0.03
0.00 0.00 0.00 0.00 0.00 0.00 0.00 0.00 0.00 0.00 0.00 0.00 0.00 0.00 0.00 0.00 0.00 0.00 0.00 0.01 0.01 0.00 0.00 0.00 0.01 0.02 0.03 0.05 0.04 0.06 0.07 0.08 0.08 0.06 0.07 0.08 0.06 0.05 0.04 0.04 0.03 0.02 0.02 0.03 0.03 0.04 0.05 0.04 0.02
0.00 0.00 0.00 0.00 0.00 0.00 0.00 0.00 0.00 0.00 0.00 0.00 0.00 0.00 0.00 0.00 0.00 0.00 0.00 0.01 0.02 0.01 0.01 0.00 0.01 0.02 0.03 0.04 0.03 0.03 0.04 0.06 0.07 0.06 0.05 0.06 0.07 0.07 0.07 0.07 0.07 0.05 0.05 0.05 0.05 0.05 0.03 0.01 0.01
0.00 0.00 0.00 0.00 0.00 0.00 0.00 0.00 0.00 0.00 0.00 0.00 0.00 0.00 0.00 0.00 0.00 0.00 0.00 0.01 0.01 0.02 0.02 0.00 0.00 0.02 0.02 0.03 0.04 0.03 0.03 0.04 0.05 0.05 0.05 0.06 0.07 0.07 0.07 0.07 0.08 0.07 0.04 0.04 0.06 0.05 0.03 0.02 0.01
0.00 0.00 0.00 0.00 0.00 0.00 0.00 0.00 0.00 0.00 0.00 0.00 0.00 0.00 0.00 0.00 0.00 0.00 0.00 0.01 0.01 0.01 0.01 0.01 0.01 0.02 0.02 0.04 0.05 0.06 0.03 0.02 0.02 0.03 0.03 0.04 0.05 0.06 0.08 0.07 0.08 0.06 0.06 0.05 0.04 0.03 0.02 0.02 0.02
0.00 0.00 0.00 0.00 0.00 0.01 0.01 0.01 0.00 0.00 0.00 0.00 0.00 0.00 0.00 0.00 0.00 0.00 0.00 0.00 0.00 0.01 0.01 0.01 0.02 0.04 0.05 0.06 0.06 0.06 0.04 0.01 0.02 0.04 0.03 0.03 0.03 0.04 0.05 0.07 0.05 0.04 0.04 0.04 0.05 0.04 0.04 0.03 0.02
0.00 0.00 0.01 0.00 0.00 0.00 0.03 0.03 0.00 0.00 0.00 0.00 0.00 0.00 0.00 0.00 0.00 0.00 0.00 0.00 0.00 0.01 0.01 0.02 0.03 0.06 0.06 0.08 0.10 0.07 0.04 0.02 0.02 0.02 0.03 0.03 0.03 0.03 0.04 0.04 0.03 0.04 0.03 0.03 0.05 0.05 0.05 0.04 0.03
0.00 0.01 0.02 0.00 0.00 0.00 0.03 0.03 0.01 0.00 0.00 0.00 0.00 0.00 0.00 0.00 0.00 0.00 0.00 0.00 0.00 0.01 0.01 0.03 0.03 0.04 0.05 0.07 0.09 0.08 0.06 0.05 0.04 0.04 0.04 0.05 0.04 0.03 0.04 0.05 0.05 0.04 0.04 0.04 0.04 0.06 0.06 0.06 0.05
0.00 0.00 0.00 0.00 0.00 0.00 0.00 0.01 0.00 0.00 0.00 0.00 0.00 0.00 0.00 0.00 0.00 0.00 0.00 0.00 0.01 0.01 0.02 0.03 0.03 0.03 0.06 0.07 0.09 0.13 0.10 0.07 0.05 0.04 0.05 0.05 0.04 0.03 0.06 0.05 0.04 0.04 0.06 0.08 0.08 0.08 0.08 0.07 0.06
0.00 0.00 0.00 0.00 0.00 0.00 0.00 0.00 0.00 0.00 0.00 0.00 0.01 0.00 0.00 0.00 0.00 0.00 0.00 0.00 0.01 0.02 0.03 0.04 0.05 0.05 0.07 0.10 0.13 0.18 0.13 0.10 0.09 0.07 0.05 0.04 0.03 0.04 0.07 0.07 0.09 0.06 0.07 0.09 0.10 0.10 0.11 0.09 0.07
0.00 0.00 0.01 0.01 0.01 0.00 0.00 0.00 0.00 0.00 0.00 0.00 0.00 0.00 0.00 0.00 0.01 0.01 0.00 0.00 0.01 0.01 0.02 0.02 0.04 0.05 0.06 0.08 0.10 0.10 0.11 0.11 0.10 0.09 0.08 0.05 0.04 0.04 0.06 0.10 0.08 0.07 0.09 0.09 0.09 0.11 0.11 0.10 0.07
0.00 0.00 0.00 0.00 0.00 0.00 0.00 0.01 0.01 0.01 0.01 0.00 0.01 0.01 0.00 0.00 0.01 0.01 0.01 0.01 0.01 0.01 0.01 0.01 0.03 0.04 0.05 0.06 0.07 0.07 0.07 0.09 0.10 0.10 0.10 0.07 0.06 0.04 0.05 0.06 0.07 0.08 0.07 0.08 0.09 0.11 0.11 0.10 0.09
0.00 0.00 0.00 0.00 0.00 0.01 0.01 0.04 0.02 0.02 0.01 0.01 0.01 0.01 0.00 0.00 0.00 0.01 0.01 0.01 0.01 0.01 0.01 0.01 0.02 0.03 0.05 0.05 0.06 0.06 0.07 0.09 0.09 0.10 0.10 0.07 0.07 0.07 0.05 0.04 0.05 0.06 0.06 0.08 0.07 0.09 0.09 0.11 0.12
0.00 0.00 0.00 0.00 0.00 0.00 0.01 0.03 0.03 0.03 0.01 0.01 0.01 0.01 0.01 0.01 0.01 0.01 0.01 0.01 0.00 0.01 0.01 0.01 0.02 0.03 0.04 0.05 0.06 0.06 0.06 0.06 0.06 0.08 0.09 0.07 0.07 0.08 0.07 0.06 0.06 0.08 0.09 0.10 0.09 0.12 0.11 0.10 0.12
0.00 0.00 0.00 0.00 0.00 0.00 0.00 0.01 0.04 0.03 0.02 0.01 0.00 0.00 0.00 0.00 0.01 0.01 0.00 0.00 0.00 0.00 0.01 0.01 0.02 0.03 0.04 0.04 0.04 0.05 0.05 0.04 0.04 0.06 0.09 0.08 0.06 0.07 0.08 0.07 0.07 0.09 0.11 0.10 0.09 0.12 0.11 0.11 0.10
0.00 0.00 0.00 0.00 0.00 0.00 0.00 0.00 0.01 0.01 0.02 0.01 0.00 0.00 0.00 0.00 0.01 0.00 0.00 0.00 0.00 0.00 0.00 0.01 0.01 0.03 0.04 0.04 0.03 0.03 0.04 0.03 0.03 0.04 0.06 0.06 0.06 0.06 0.07 0.06 0.06 0.07 0.08 0.08 0.09 0.10 0.10 0.11 0.12
0.00 0.00 0.00 0.00 0.00 0.00 0.00 0.00 0.00 0.00 0.00 0.00 0.00 0.00 0.00 0.00 0.00 0.00 0.00 0.00 0.00 0.01 0.01 0.01 0.01 0.02 0.03 0.02 0.02 0.02 0.03 0.03 0.04 0.04 0.04 0.04 0.04 0.05 0.06 0.05 0.06 0.05 0.05 0.05 0.07 0.08 0.09 0.11 0.09
0.00 0.00 0.00 0.00 0.00 0.00 0.00 0.01 0.01 0.00 0.00 0.00 0.00 0.00 0.01 0.00 0.00 0.00 0.00 0.00 0.00 0.00 0.01 0.01 0.02 0.01 0.01 0.01 0.02 0.03 0.03 0.03 0.04 0.03 0.02 0.02 0.02 0.03 0.04 0.04 0.05 0.05 0.05 0.05 0.06 0.08 0.09 0.09 0.09
0.00 0.00 0.00 0.00 0.00 0.00 0.00 0.01 0.01 0.00 0.00 0.00 0.00 0.00 0.01 0.01 0.00 0.00 0.00 0.00 0.00 0.01 0.00 0.01 0.02 0.02 0.01 0.01 0.02 0.03 0.03 0.02 0.02 0.02 0.01 0.01 0.02 0.02 0.02 0.03 0.03 0.04 0.05 0.05 0.05 0.06 0.07 0.07 0.07
0.00 0.00 0.00 0.00 0.00 0.00 0.00 0.01 0.01 0.01 0.00 0.00 0.00 0.00 0.00 0.00 0.00 0.00 0.01 0.01 0.00 0.00 0.00 0.00 0.01 0.01 0.00 0.00 0.01 0.01 0.01 0.01 0.02 0.01 0.01 0.01 0.02 0.03 0.04 0.03 0.04 0.04 0.04 0.04 0.05 0.05 0.05 0.04 0.05
0.00 0.00 0.00 0.00 0.00 0.00 0.00 0.00 0.01 0.03 0.00 0.00 0.00 0.00 0.00 0.00 0.00 0.00 0.01 0.01 0.01 0.01 0.01 0.00 0.00 0.00 0.00 0.00 0.00 0.01 0.01 0.01 0.02 0.01 0.02 0.04 0.04 0.04 0.04 0.03 0.04 0.04 0.03 0.05 0.08 0.09 0.06 0.06 0.06
MSLP
1004.40 1005.14 1006.11 1007.18 1008.19 1009.01 1009.58 1009.91 1010.04 1010.07 1010.10 1010.20 1010.38 1010.62 1010.87 1011.07 1011.18 1011.18 1011.13 1011.08 1011.13 1011.32 1011.68 1012.18 1012.75 1013.28 1013.67 1013.87 1013.86 1013.68 1013.40 1013.11 1012.92 1012.87 1012.98 1013.20 1013.49 1013.78 1014.01 1014.15 1014.21 1014.22 1014.23 1014.27 1014.36 1014.50 1014.68 1014.86 1015.01
1004.55 1005.47 1006.58 1007.71 1008.72 1009.49 1009.95 1010.14 1010.12 1010.01 1009.93 1009.93 1010.06 1010.27 1010.53 1010.75 1010.88 1010.93 1010.93 1010.94 1011.03 1011.28 1011.68 1012.22 1012.81 1013.36 1013.78 1014.00 1014.02 1013.88 1013.64 1013.41 1013.27 1013.26 1013.39 1013.62 1013.89 1014.15 1014.35 1014.46 1014.51 1014.53 1014.56 1014.64 1014.78 1014.96 1015.16 1015.34 1015.47
1004.89 1005.93 1007.12 1008.27 1009.23 1009.90 1010.23 1010.28 1010.12 1009.89 1009.71 1009.65 1009.73 1009.93 1010.19 1010.42 1010.59 1010.67 1010.70 1010.75 1010.88 1011.16 1011.59 1012.15 1012.77 1013.35 1013.80 1014.07 1014.15 1014.08 1013.93 1013.78 1013.70 1013.74 1013.88 1014.10 1014.35 1014.56 1014.71 1014.79 1014.83 1014.86 1014.92 1015.05 1015.23 1015.44 1015.65 1015.81 1015.90
1005.35 1006.47 1007.68 1008.79 1009.67 1010.22 1010.42 1010.34 1010.08 1009.76 1009.52 1009.43 1009.50 1009.69 1009.94 1010.18 1010.35 1010.44 1010.48 1010.55 1010.71 1011.01 1011.47 1012.05 1012.69 1013.31 1013.80 1014.13 1014.29 1014.31 1014.24 1014.18 1014.17 1014.24 1014.40 1014.61 1014.82 1014.99 1015.10 1015.15 1015.18 1015.23 1015.32 1015.48 1015.69 1015.93 1016.13 1016.26 1016.29
1005.86 1006.99 1008.16 1009.19 1009.96 1010.40 1010.50 1010.34 1010.03 1009.69 1009.44 1009.35 1009.42 1009.61 1009.85 1010.07 1010.22 1010.30 1010.35 1010.42 1010.58 1010.90 1011.38 1011.98 1012.65 1013.29 1013.83 1014.22 1014.44 1014.54 1014.56 1014.57 1014.62 1014.73 1014.90 1015.10 1015.28 1015.42 1015.50 1015.54 1015.57 1015.63 1015.75 1015.93 1016.15 1016.38 1016.55 1016.63 1016.61
1006.30 1007.39 1008.46 1009.39 1010.05 1010.39 1010.44 1010.26 1009.96 1009.67 1009.47 1009.43 1009.52 1009.72 1009.95 1010.14 1010.26 1010.30 1010.33 1010.39 1010.56 1010.89 1011.38 1012.00 1012.69 1013.35 1013.92 1014.34 1014.61 1014.76 1014.84 1014.90 1014.99 1015.14 1015.32 1015.51 1015.68 1015.81 1015.88 1015.92 1015.96 1016.03 1016.17 1016.35 1016.56 1016.76 1016.88 1016.91 1016.83
1006.58 1007.56 1008.52 1009.32 1009.88 1010.17 1010.22 1010.08 1009.87 1009.68 1009.59 1009.63 1009.78 1009.99 1010.21 1010.36 1010.44 1010.44 1010.43 1010.48 1010.66 1010.99 1011.50 1012.13 1012.82 1013.48 1014.05 1014.48 1014.77 1014.94 1015.04 1015.13 1015.25 1015.41 1015.61 1015.82 1015.99 1016.13 1016.21 1016.26 1016.32 1016.40 1016.53 1016.70 1016.88 1017.03 1017.10 1017.07 1016.94
1006.66 1007.51 1008.32 1008.99 1009.47 1009.74 1009.82 1009.78 1009.70 1009.66 1009.71 1009.87 1010.09 1010.34 1010.55 1010.67 1010.70 1010.67 1010.64 1010.68 1010.85 1011.19 1011.70 1012.33 1013.01 1013.66 1014.20 1014.61 1014.88 1015.03 1015.14 1015.24 1015.37 1015.55 1015.76 1015.99 1016.19 1016.35 1016.46 1016.53 1016.60 1016.69 1016.81 1016.95 1017.09 1017.19 1017.20 1017.12 1016.96
1006.58 1007.27 1007.92 1008.47 1008.88 1009.14 1009.28 1009.36 1009.43 1009.56 1009.77 1010.05 1010.36 1010.65 1010.86 1010.96 1010.97 1010.92 1010.87 1010.90 1011.08 1011.42 1011.93 1012.55 1013.20 1013.81 1014.32 1014.68 1014.91 1015.04 1015.13 1015.22 1015.35 1015.55 1015.78 1016.03 1016.27 1016.46 1016.60 1016.70 1016.79 1016.87 1016.98 1017.09 1017.18 1017.22 1017.20 1017.08 1016.91
1006.42 1006.95 1007.45 1007.87 1008.21 1008.46 1008.66 1008.85 1009.07 1009.35 1009.70 1010.09 1010.48 1010.81 1011.04 1011.15 1011.15 1011.10 1011.05 1011.10 1011.28 1011.63 1012.13 1012.73 1013.35 1013.91 1014.37 1014.68 1014.87 1014.97 1015.03 1015.11 1015.25 1015.45 1015.71 1015.98 1016.25 1016.47 1016.64 1016.77 1016.87 1016.95 1017.03 1017.11 1017.16 1017.17 1017.11 1016.99 1016.83
1006.30 1006.68 1007.03 1007.34 1007.60 1007.83 1008.05 1008.31 1008.62 1009.01 1009.47 1009.95 1010.40 1010.78 1011.03 1011.17 1011.19 1011.16 1011.15 1011.21 1011.42 1011.77 1012.26 1012.83 1013.41 1013.93 1014.33 1014.61 1014.77 1014.85 1014.90 1014.97 1015.11 1015.32 1015.59 1015.88 1016.17 1016.42 1016.61 1016.75 1016.85 1016.93 1016.99 1017.04 1017.07 1017.06 1017.00 1016.90 1016.76
1006.34 1006.59 1006.80 1006.99 1007.16 1007.33 1007.54 1007.80 1008.16 1008.60 1009.10 1009.62 1010.12 1010.53 1010.83 1011.01 1011.09 1011.11 1011.14 1011.25 1011.47 1011.83 1012.30 1012.84 1013.38 1013.86 1014.24 1014.49 1014.64 1014.72 1014.78 1014.86 1015.00 1015.22 1015.49 1015.78 1016.07 1016.32 1016.52 1016.67 1016.77 1016.84 1016.89 1016.93 1016.96 1016.95 1016.91 1016.83 1016.74
1006.61 1006.75 1006.84 1006.91 1006.97 1007.05 1007.19 1007.42 1007.74 1008.16 1008.65 1009.18 1009.69 1010.14 1010.50 1010.74 1010.89 1010.99 1011.09 1011.24 1011.49 1011.84 1012.28 1012.78 1013.28 1013.74 1014.10 1014.36 1014.53 1014.63 1014.71 1014.81 1014.97 1015.18 1015.43 1015.71 1015.99 1016.23 1016.42 1016.55 1016.65 1016.72 1016.78 1016.83 1016.86 1016.88 1016.88 1016.84 1016.80
1007.12 1007.16 1007.15 1007.10 1007.05 1007.03 1007.07 1007.19 1007.43 1007.78 1008.22 1008.72 1009.23 1009.72 1010.14 1010.47 1010.71 1010.90 1011.07 1011.27 1011.52 1011.86 1012.26 1012.71 1013.18 1013.61 1013.97 1014.25 1014.46 1014.61 1014.73 1014.86 1015.02 1015.22 1015.45 1015.70 1015.93 1016.14 1016.31 1016.43 1016.53 1016.61 1016.68 1016.75 1016.82 1016.88 1016.92 1016.94 1016.94
1007.77 1007.74 1007.64 1007.51 1007.35 1007.22 1007.15 1007.16 1007.28 1007.53 1007.90 1008.35 1008.86 1009.38 1009.87 1010.30 1010.65 1010.93 1011.17 1011.40 1011.65 1011.95 1012.29 1012.68 1013.10 1013.50 1013.87 1014.19 1014.45 1014.66 1014.83 1014.99 1015.15 1015.33 1015.52 1015.71 1015.89 1016.06 1016.20 1016.32 1016.42 1016.52 1016.62 1016.72 1016.83 1016.94 1017.04 1017.11 1017.16
1008.44 1008.36 1008.21 1008.01 1007.78 1007.57 1007.40 1007.31 1007.32 1007.47 1007.75 1008.16 1008.67 1009.23 1009.80 1010.33 1010.78 1011.15 1011.45 1011.69 1011.91 1012.15 1012.41 1012.72 1013.07 1013.45 1013.82 1014.17 1014.49 1014.75 1014.97 1015.16 1015.32 1015.46 1015.60 1015.73 1015.86 1015.98 1016.10 1016.21 1016.33 1016.45 1016.59 1016.74 1016.90 1017.06 1017.20 1017.32 1017.42
1009.00 1008.90 1008.72 1008.51 1008.26 1008.01 1007.78 1007.61 1007.54 1007.61 1007.83 1008.20 1008.71 1009.32 1009.96 1010.58 1011.13 1011.58 1011.91 1012.15 1012.31 1012.46 1012.62 1012.83 1013.11 1013.43 1013.80 1014.18 1014.54 1014.86 1015.12 1015.32 1015.47 1015.58 1015.66 1015.73 1015.80 1015.88 1015.98 1016.10 1016.24 1016.40 1016.59 1016.78 1016.98 1017.19 1017.37 1017.54 1017.67
1009.37 1009.26 1009.11 1008.93 1008.72 1008.49 1008.26 1008.07 1007.95 1007.95 1008.12 1008.47 1008.98 1009.62 1010.33 1011.03 1011.65 1012.15 1012.50 1012.71 1012.81 1012.85 1012.90 1012.99 1013.17 1013.44 1013.79 1014.18 1014.57 1014.93 1015.22 1015.43 1015.56 1015.63 1015.66 1015.67 1015.70 1015.75 1015.85 1015.99 1016.16 1016.36 1016.59 1016.82 1017.06 1017.29 1017.51 1017.71 1017.89
1009.52 1009.44 1009.37 1009.28 1009.17 1009.02 1008.84 1008.66 1008.52 1008.49 1008.62 1008.93 1009.43 1010.08 1010.83 1011.58 1012.25 1012.78 1013.12 1013.29 1013.31 1013.25 1013.18 1013.16 1013.24 1013.45 1013.77 1014.16 1014.57 1014.95 1015.26 1015.47 1015.59 1015.62 1015.60 1015.57 1015.57 1015.61 1015.71 1015.87 1016.07 1016.32 1016.58 1016.84 1017.10 1017.35 1017.58 1017.81 1018.01
1009.50 1009.50 1009.55 1009.61 1009.64 1009.62 1009.52 1009.38 1009.24 1009.17 1009.25 1009.51 1009.97 1010.61 1011.35 1012.12 1012.81 1013.34 1013.67 1013.80 1013.74 1013.59 1013.41 1013.29 1013.29 1013.43 1013.71 1014.10 1014.51 1014.91 1015.23 1015.44 1015.54 1015.54 1015.49 1015.44 1015.41 1015.45 1015.56 1015.75 1015.99 1016.26 1016.55 1016.82 1017.08 1017.33 1017.56 1017.79 1018.02
1009.41 1009.54 1009.75 1010.00 1010.21 1010.33 1010.33 1010.23 1010.08 1009.96 1009.95 1010.13 1010.51 1011.08 1011.78 1012.53 1013.21 1013.74 1014.05 1014.14 1014.03 1013.81 1013.55 1013.36 1013.29 1013.39 1013.64 1014.01 1014.43 1014.82 1015.15 1015.35 1015.44 1015.43 1015.36 1015.29 1015.26 1015.30 1015.43 1015.64 1015.91 1016.20 1016.49 1016.76 1017.01 1017.23 1017.45 1017.67 1017.90
1009.38 1009.66 1010.07 1010.52 1010.91 1011.17 1011.26 1011.18 1010.99 1010.78 1010.66 1010.70 1010.96 1011.43 1012.05 1012.74 1013.39 1013.90 1014.20 1014.27 1014.15 1013.90 1013.61 1013.37 1013.27 1013.33 1013.56 1013.92 1014.33 1014.73 1015.05 1015.25 1015.33 1015.31 1015.24 1015.16 1015.13 1015.18 1015.33 1015.55 1015.83 1016.14 1016.43 1016.68 1016.90 1017.09 1017.27 1017.46 1017.69
1009.48 1009.95 1010.56 1011.20 1011.76 1012.13 1012.26 1012.17 1011.91 1011.58 1011.30 1011.18 1011.28 1011.60 1012.11 1012.73 1013.34 1013.83 1014.13 1014.22 1014.11 1013.87 1013.59 1013.35 1013.24 1013.30 1013.51 1013.86 1014.26 1014.65 1014.97 1015.17 1015.24 1015.21 1015.14 1015.06 1015.04 1015.10 1015.25 1015.49 1015.78 1016.08 1016.36 1016.59 1016.78 1016.93 1017.07 1017.23 1017.43
1009.75 1010.40 1011.19 1011.99 1012.67 1013.11 1013.25 1013.10 1012.74 1012.26 1011.81 1011.51 1011.43 1011.61 1012.00 1012.53 1013.10 1013.58 1013.90 1014.03 1013.97 1013.78 1013.53 1013.33 1013.23 1013.30 1013.51 1013.85 1014.24 1014.61 1014.92 1015.11 1015.17 1015.15 1015.07 1015.00 1014.98 1015.05 1015.21 1015.45 1015.74 1016.04 1016.30 1016.52 1016.68 1016.79 1016.89 1017.01 1017.18
1010.12 1010.93 1011.87 1012.78 1013.52 1013.97 1014.08 1013.86 1013.37 1012.75 1012.14 1011.67 1011.44 1011.48 1011.76 1012.22 1012.75 1013.23 1013.59 1013.77 1013.78 1013.66 1013.49 1013.33 1013.27 1013.35 1013.57 1013.89 1014.26 1014.61 1014.89 1015.07 1015.13 1015.10 1015.03 1014.96 1014.95 1015.02 1015.19 1015.43 1015.72 1016.02 1016.27 1016.48 1016.63 1016.72 1016.79 1016.88 1017.01
1010.52 1011.45 1012.47 1013.42 1014.16 1014.58 1014.62 1014.31 1013.72 1012.98 1012.25 1011.66 1011.31 1011.25 1011.46 1011.87 1012.38 1012.88 1013.28 1013.53 1013.61 1013.58 1013.47 1013.38 1013.37 1013.46 1013.67 1013.97 1014.31 1014.64 1014.89 1015.05 1015.10 1015.07 1015.00 1014.94 1014.94 1015.02 1015.19 1015.43 1015.72 1016.02 1016.28 1016.50 1016.64 1016.74 1016.80 1016.87 1016.96
1010.85 1011.82 1012.84 1013.76 1014.45 1014.79 1014.76 1014.36 1013.70 1012.90 1012.11 1011.47 1011.08 1010.97 1011.15 1011.54 1012.05 1012.57 1013.01 1013.32 1013.49 1013.53 1013.50 1013.47 1013.49 1013.60 1013.80 1014.08 1014.38 1014.67 1014.90 1015.03 1015.07 1015.04 1014.98 1014.93 1014.94 1015.02 1015.20 1015.45 1015.74 1016.05 1016.33 1016.56 1016.74 1016.85 1016.93 1016.99 1017.06
1011.04 1011.98 1012.92 1013.73 1014.30 1014.54 1014.43 1013.98 1013.30 1012.50 1011.73 1011.12 1010.75 1010.68 1010.87 1011.27 1011.79 1012.34 1012.81 1013.18 1013.40 1013.51 1013.55 1013.57 1013.62 1013.74 1013.94 1014.19 1014.46 1014.71 1014.90 1015.02 1015.05 1015.03 1014.98 1014.95 1014.97 1015.06 1015.24 1015.49 1015.80 1016.11 1016.42 1016.68 1016.89 1017.05 1017.16 1017.23 1017.29
1011.07 1011.88 1012.67 1013.31 1013.72 1013.83 1013.64 1013.18 1012.53 1011.81 1011.14 1010.63 1010.36 1010.36 1010.61 1011.04 1011.58 1012.15 1012.65 1013.04 1013.32 1013.48 1013.57 1013.64 1013.72 1013.86 1014.05 1014.28 1014.52 1014.74 1014.91 1015.02 1015.05 1015.04 1015.02 1015.01 1015.04 1015.15 1015.34 1015.60 1015.90 1016.23 1016.55 1016.85 1017.10 1017.30 1017.45 1017.55 1017.63
1010.97 1011.59 1012.15 1012.58 1012.80 1012.78 1012.52 1012.07 1011.49 1010.90 1010.39 1010.04 1009.91 1010.02 1010.34 1010.82 1011.38 1011.95 1012.46 1012.87 1013.18 1013.38 1013.52 1013.64 1013.77 1013.92 1014.12 1014.35 1014.57 1014.78 1014.94 1015.05 1015.10 1015.11 1015.12 1015.14 1015.20 1015.33 1015.52 1015.78 1016.08 1016.40 1016.73 1017.04 1017.32 1017.56 1017.75 1017.90 1018.00
Thickness
5867 5868 5865 5855 5834 5816 5799 5806 5812 5810 5810 5818 5819 5810 5796 5790 5778 5762 5788 5798 5793 5785 5777 5772 5769 5768 5767 5766 5765 5764 5763 5762 5762 5761 5760 5760 5759 5759 5758 5758 5758 5757 5756 5755 5755 5754 5753 5753 5752
5875 5875 5863 5849 5824 5795 5793 5809 5809 5811 5818 5823 5818 5809 5796 5789 5794 5790 5792 5796 5794 5786 5778 5772 5768 5767 5766 5765 5764 5763 5762 5761 5760 5760 5759 5758 5757 5757 5757 5756 5756 5755 5755 5754 5753 5752 5751 5751 5751
5877 5877 5856 5845 5821 5801 5799 5813 5815 5822 5827 5820 5809 5806 5796 5788 5793 5792 5795 5797 5792 5783 5775 5770 5768 5766 5765 5763 5762 5761 5760 5759 5759 5758 5757 5757 5756 5756 5755 5755 5754 5754 5753 5752 5751 5751 5750 5750 5749
5878 5872 5861 5839 5814 5819 5820 5822 5826 5821 5822 5821 5811 5796 5796 5803 5798 5798 5800 5798 5791 5784 5776 5769 5766 5765 5763 5762 5761 5760 5759 5758 5757 5757 5756 5755 5755 5754 5754 5753 5753 5752 5751 5751 5750 5750 5749 5749 5748
5879 5866 5842 5826 5820 5828 5834 5835 5832 5820 5814 5813 5805 5787 5785 5801 5805 5803 5801 5799 5792 5785 5777 5769 5766 5764 5762 5760 5759 5758 5757 5756 5756 5755 5755 5754 5753 5753 5752 5752 5751 5751 5750 5750 5749 5749 5748 5748 5747
5869 5866 5833 5818 5821 5831 5837 5840 5833 5820 5815 5811 5800 5787 5785 5801 5802 5802 5802 5799 5795 5787 5778 5769 5765 5763 5761 5759 5758 5757 5756 5755 5755 5754 5753 5753 5752 5752 5751 5750 5750 5749 5749 5749 5748 5748 5747 5747 5747
5866 5857 5836 5829 5822 5827 5836 5845 5833 5822 5816 5815 5811 5791 5789 5799 5804 5805 5803 5799 5796 5789 5781 5774 5768 5764 5761 5759 5758 5757 5756 5755 5754 5753 5753 5752 5752 5751 5750 5749 5749 5749 5749 5748 5748 5747 5747 5747 5747
5888 5867 5843 5836 5826 5826 5843 5844 5839 5829 5821 5831 5825 5797 5788 5799 5808 5806 5802 5798 5795 5790 5785 5779 5774 5768 5764 5761 5758 5757 5756 5755 5754 5753 5752 5752 5751 5751 5750 5749 5749 5748 5748 5748 5747 5747 5747 5747 5747
5897 5861 5841 5840 5834 5835 5846 5839 5839 5843 5833 5829 5828 5815 5808 5811 5809 5802 5796 5792 5789 5787 5785 5782 5777 5772 5769 5765 5760 5757 5756 5754 5754 5754 5753 5752 5752 5752 5751 5750 5749 5749 5748 5748 5748 5747 5747 5747 5748
5885 5852 5851 5861 5857 5850 5849 5843 5839 5832 5821 5815 5814 5814 5815 5811 5805 5797 5791 5786 5784 5782 5783 5782 5779 5775 5772 5769 5762 5759 5758 5755 5755 5755 5755 5754 5754 5753 5752 5750 5749 5749 5749 5748 5748 5747 5747 5748 5749
5883 5864 5868 5870 5870 5864 5854 5850 5851 5834 5817 5815 5809 5809 5811 5807 5802 5797 5793 5789 5785 5785 5784 5782 5778 5775 5772 5769 5765 5763 5760 5757 5757 5757 5756 5756 5755 5754 5753 5751 5750 5750 5750 5750 5749 5749 5749 5750 5751
5881 5877 5878 5874 5876 5869 5860 5857 5850 5841 5832 5833 5826 5820 5813 5807 5802 5799 5794 5791 5788 5785 5783 5782 5778 5774 5771 5769 5767 5764 5763 5760 5759 5757 5757 5757 5756 5755 5754 5754 5753 5752 5752 5752 5752 5751 5752 5752 5753
5878 5876 5880 5880 5876 5870 5865 5856 5848 5841 5844 5839 5830 5822 5816 5810 5807 5804 5800 5795 5790 5785 5783 5780 5777 5773 5770 5767 5765 5765 5763 5761 5759 5758 5757 5757 5756 5756 5756 5755 5754 5754 5754 5753 5753 5753 5753 5753 5753
5882 5882 5880 5879 5873 5869 5855 5850 5846 5840 5845 5836 5828 5821 5819 5814 5810 5804 5799 5794 5790 5786 5783 5781 5777 5773 5769 5766 5764 5763 5763 5760 5759 5758 5757 5756 5756 5756 5755 5755 5755 5754 5754 5754 5753 5753 5753 5753 5753
5887 5872 5868 5874 5872 5863 5852 5836 5839 5847 5845 5833 5828 5825 5821 5817 5813 5806 5802 5797 5793 5789 5786 5781 5778 5774 5770 5767 5764 5763 5763 5761 5759 5758 5757 5756 5756 5755 5755 5755 5754 5755 5755 5754 5754 5753 5754 5753 5753
5875 5857 5840 5861 5870 5864 5844 5817 5841 5853 5844 5832 5830 5827 5822 5818 5816 5812 5807 5802 5798 5792 5787 5783 5781 5775 5771 5768 5766 5764 5763 5762 5760 5758 5757 5756 5756 5755 5755 5755 5755 5755 5755 5755 5754 5753 5752 5752 5752
5858 5838 5836 5852 5872 5865 5846 5824 5843 5857 5847 5836 5833 5829 5824 5818 5817 5815 5811 5805 5800 5794 5789 5785 5782 5777 5773 5770 5767 5765 5763 5762 5761 5759 5758 5756 5756 5756 5756 5756 5755 5755 5755 5755 5755 5753 5752 5750 5750
5840 5841 5843 5850 5870 5867 5850 5840 5851 5857 5852 5843 5838 5833 5827 5820 5818 5818 5814 5809 5803 5798 5792 5787 5783 5779 5776 5772 5769 5766 5764 5763 5762 5761 5759 5757 5756 5756 5756 5756 5755 5756 5755 5754 5753 5752 5752 5751 5750
5861 5852 5847 5860 5875 5867 5858 5852 5856 5860 5857 5848 5841 5836 5830 5825 5825 5822 5817 5812 5805 5798 5793 5788 5784 5780 5776 5772 5768 5765 5762 5763 5763 5762 5760 5759 5758 5757 5756 5756 5755 5756 5755 5754 5753 5752 5751 5750 5752
5863 5856 5855 5865 5875 5868 5859 5853 5860 5862 5857 5856 5848 5841 5836 5829 5824 5821 5817 5812 5807 5800 5795 5791 5786 5782 5778 5775 5772 5770 5767 5766 5764 5764 5762 5760 5759 5758 5758 5756 5755 5755 5754 5754 5753 5752 5749 5749 5751
5862 5858 5856 5857 5869 5871 5858 5837 5845 5853 5858 5858 5856 5850 5844 5836 5827 5822 5818 5813 5809 5803 5798 5794 5788 5785 5781 5778 5775 5773 5769 5766 5764 5762 5762 5762 5761 5759 5758 5756 5756 5756 5755 5753 5753 5752 5749 5746 5748
5854 5873 5867 5860 5850 5842 5848 5807 5821 5837 5842 5847 5851 5851 5846 5842 5834 5827 5821 5816 5811 5806 5803 5797 5791 5786 5783 5780 5776 5772 5767 5762 5763 5763 5763 5762 5761 5760 5759 5757 5756 5756 5755 5754 5753 5753 5751 5748 5745
5864 5876 5869 5864 5854 5842 5844 5818 5810 5830 5828 5841 5852 5853 5850 5846 5839 5832 5826 5820 5816 5812 5806 5800 5793 5788 5784 5781 5777 5773 5769 5767 5766 5765 5763 5762 5762 5761 5759 5758 5757 5756 5755 5754 5753 5753 5751 5750 5747
5875 5866 5860 5860 5853 5824 5836 5826 5805 5820 5832 5844 5855 5856 5854 5851 5845 5837 5831 5824 5819 5815 5810 5803 5795 5789 5785 5781 5778 5774 5770 5768 5765 5763 5761 5761 5761 5760 5760 5759 5757 5756 5755 5754 5753 5753 5751 5749 5748
5863 5841 5820 5816 5819 5818 5844 5835 5824 5848 5858 5858 5856 5857 5858 5854 5846 5838 5830 5823 5818 5815 5810 5804 5796 5789 5786 5782 5778 5775 5772 5769 5766 5763 5761 5760 5759 5758 5758 5758 5756 5755 5754 5753 5753 5752 5750 5749 5747
5852 5844 5817 5801 5802 5813 5835 5828 5843 5869 5871 5870 5868 5863 5860 5853 5847 5840 5833 5827 5821 5817 5811 5805 5797 5791 5787 5783 5779 5776 5773 5770 5767 5765 5763 5761 5760 5759 5758 5757 5755 5754 5753 5752 5751 5750 5749 5747 5745
5848 5846 5858 5840 5830 5814 5817 5829 5846 5869 5866 5866 5863 5859 5854 5852 5848 5842 5837 5831 5825 5819 5813 5807 5799 5793 5789 5785 5781 5777 5773 5770 5768 5766 5764 5762 5759 5759 5757 5755 5753 5752 5750 5750 5749 5746 5745 5745 5743
5861 5858 5850 5833 5810 5800 5813 5820 5825 5843 5852 5859 5858 5855 5853 5852 5848 5845 5840 5834 5829 5822 5816 5809 5802 5795 5791 5787 5783 5778 5774 5771 5768 5765 5762 5760 5758 5756 5754 5753 5751 5750 5748 5747 5745 5743 5743 5741 5739
5844 5844 5843 5840 5834 5810 5797 5808 5847 5845 5854 5857 5857 5858 5855 5852 5849 5845 5841 5837 5831 5824 5817 5809 5803 5797 5792 5788 5784 5779 5775 5771 5768 5764 5761 5759 5756 5754 5752 5750 5748 5746 5744 5743 5741 5740 5739 5737 5735
5855 5848 5843 5821 5820 5827 5815 5817 5858 5855 5863 5864 5859 5857 5856 5853 5850 5845 5841 5836 5830 5824 5818 5811 5805 5799 5794 5790 5784 5779 5775 5771 5766 5763 5759 5757 5754 5752 5749 5747 5745 5742 5740 5738 5736 5734 5733 5731 5729